カタログに戻る

THORAD DELTA 1 DEB

運用中SSO
NORAD 8159·DEBRIS·🇺🇸 United States

打ち上げ Nov 15, 1974 から Vandenberg Space Force Base

Loading…

次のパス (今後24時間)

TLE

最新Source: Space-Track

元期: Sep 14, 2026, 12:54 UTC

1 08159U 74089Z   26257.53753333  .00000375  00000-0  21377-2 0  9992
2 08159 101.3833 278.4078 0042688  42.2631 318.1729 12.68889624370135

AllMySatでTHORAD DELTA 1 DEBをリアルタイム追跡

Download on the App Store